Buffalo, WY

1:44 PM MDT on September 30, 2016 (GMT -0600)
Johnson County

Weather History for KBYG - April, 2014

Change the Weather History Date:

Tuesday, April 15, 2014

  Actual Average Record
Temperature  
Mean Temperature 46 °F 43 °F  
Max Temperature 59 °F 54 °F 69 °F (2006)
Min Temperature 33 °F 32 °F 15 °F (2013)
Degree Days  
Heating Degree Days 19 22  
Month to date heating degree days 384 363  
Since 1 July heating degree days 6624 6553  
Cooling Degree Days 0 0  
Month to date cooling degree days 0 0  
Year to date cooling degree days 0 0  
Moisture  
Dew Point 23 °F    
Average Humidity 54    
Maximum Humidity 89    
Minimum Humidity 18    
Precipitation  
Precipitation 0.02 in 0.03 in 0.32 in (2002)
Month to date precipitation 0.55 0.46  
Year to date precipitation 1.52 2.15  
Sea Level Pressure  
Sea Level Pressure 29.72 in    
Wind  
Wind Speed 11 mph (NW)    
Max Wind Speed 37 mph    
Max Gust Speed 44 mph    
Visibility 9 miles    
Events Rain , Snow    
T = Trace of Precipitation, MM = Missing Value Source: NWS Daily Summary

Daily Weather History Graph

Daily Weather History Graph

Search for Another Location

Airport or City:

Trip Planner

Search our weather history database for the weather conditions in past years. The results will help you decide how hot, cold, wet, or windy it might be!

Date:

Astronomy

Apr. 15, 2014 Rise Set
Actual Time 6:23 AM MDT 7:51 PM MDT
Civil Twilight 5:52 AM MDT 8:21 PM MDT
Nautical Twilight 5:16 AM MDT 8:58 PM MDT
Astronomical Twilight 4:37 AM MDT 9:37 PM MDT
Moon 8:37 PM MDT (4/15) 6:32 AM MDT (4/15)
Length of Visible Light 14h 29m
Length of Day
13h 28m
Full, 100% of the Moon is Illuminated
Apr 15
Full
Apr 22
Last Quarter
Apr 29
New
May 6
First Quarter
May 14
Full

Hourly Weather History & Observations

Time (MDT) Temp. Windchill Dew Point Humidity Pressure Visibility Wind Dir Wind Speed Gust Speed Precip Events Conditions
12:53 AM 37.0 °F 29.3 °F 14.0 °F 39% 29.94 in 10.0 mi South 11.5 mph - N/A   Clear
1:53 AM 34.0 °F 28.0 °F 15.1 °F 46% 29.91 in 10.0 mi NNW 6.9 mph - N/A   Clear
2:53 AM 35.1 °F - 17.1 °F 48% 29.87 in 10.0 mi Calm Calm - N/A   Clear
3:53 AM 36.0 °F 31.1 °F 15.1 °F 43% 29.85 in 10.0 mi West 5.8 mph - N/A   Clear
4:53 AM 37.0 °F 32.4 °F 12.9 °F 37% 29.83 in 10.0 mi SW 5.8 mph - N/A   Clear
5:53 AM 37.0 °F 32.4 °F 14.0 °F 39% 29.81 in 10.0 mi WSW 5.8 mph - N/A   Clear
6:53 AM 39.0 °F - 12.9 °F 34% 29.80 in 10.0 mi Calm Calm - N/A   Clear
7:53 AM 42.1 °F 39.2 °F 17.1 °F 37% 29.80 in 10.0 mi WSW 4.6 mph - N/A   Mostly Cloudy
8:53 AM 46.0 °F 44.8 °F 19.0 °F 34% 29.79 in 10.0 mi West 3.5 mph - N/A   Overcast
9:53 AM 52.0 °F - 19.0 °F 27% 29.75 in 10.0 mi Calm Calm - N/A   Mostly Cloudy
10:53 AM 54.0 °F - 16.0 °F 22% 29.73 in 10.0 mi ESE 4.6 mph - N/A   Overcast
11:53 AM 55.9 °F - 12.9 °F 18% 29.68 in 10.0 mi SSE 12.7 mph - N/A   Mostly Cloudy
12:53 PM 55.9 °F - 16.0 °F 21% 29.64 in 10.0 mi South 8.1 mph - N/A   Clear
1:53 PM 57.9 °F - 18.0 °F 21% 29.62 in 10.0 mi ESE 6.9 mph - N/A   Partly Cloudy
2:53 PM 55.0 °F - 21.0 °F 27% 29.61 in 10.0 mi North 9.2 mph - N/A   Overcast
3:53 PM 51.1 °F - 25.0 °F 36% 29.61 in 10.0 mi North 10.4 mph - N/A   Mostly Cloudy
4:53 PM 50.0 °F - 26.1 °F 39% 29.60 in 10.0 mi North 6.9 mph - N/A   Mostly Cloudy
5:53 PM 48.0 °F - 28.0 °F 46% 29.60 in 10.0 mi Variable 4.6 mph - N/A   Overcast
7:53 PM 39.9 °F 29.2 °F 33.1 °F 77% 29.64 in 10.0 mi North 25.3 mph 36.8 mph N/A   Mostly Cloudy
8:14 PM 35.1 °F 21.6 °F 32.0 °F 89% 29.66 in 10.0 mi NNW 31.1 mph 43.7 mph 0.00 in Rain Light Rain
8:33 PM 33.1 °F 20.9 °F 30.9 °F 92% 29.68 in 4.0 mi NNW 21.9 mph 34.5 mph 0.00 in Snow Light Snow
8:43 PM 33.1 °F 20.3 °F 30.9 °F 92% 29.69 in 2.0 mi NNW 24.2 mph 36.8 mph 0.00 in Snow Light Snow
8:53 PM 33.1 °F 19.8 °F 30.9 °F 92% 29.70 in 2.0 mi NNW 26.5 mph 38.0 mph 0.01 in Snow Light Snow
9:04 PM 33.1 °F 20.9 °F 30.9 °F 92% 29.71 in 1.8 mi NNW 21.9 mph 36.8 mph 0.00 in Snow Light Snow
9:13 PM 34.0 °F 22.1 °F 32.0 °F 92% 29.71 in 3.0 mi NNW 21.9 mph 33.4 mph 0.00 in Snow Light Snow
9:23 PM 35.1 °F 24.8 °F 32.0 °F 89% 29.71 in 9.0 mi NNW 17.3 mph 29.9 mph 0.01 in   Overcast
9:30 PM 35.1 °F 25.5 °F 32.0 °F 89% 29.71 in 10.0 mi NNW 15.0 mph 27.6 mph 0.01 in   Overcast
9:53 PM 36.0 °F 24.7 °F 32.0 °F 86% 29.68 in 10.0 mi NNW 21.9 mph 28.8 mph 0.01 in Rain Light Rain
10:53 PM 36.0 °F 24.4 °F 32.0 °F 86% 29.68 in 10.0 mi NNW 23.0 mph 38.0 mph 0.00 in Rain Light Rain
11:53 PM 36.0 °F 23.5 °F 30.0 °F 79% 29.67 in 10.0 mi NNW 27.6 mph 42.6 mph 0.00 in   Clear